{"data":{"norad_id":52489,"intl_designator":"2022-049AQ","name":"STARLINK-3923","alt_names":[],"object_type":"PAYLOAD","status":"ACTIVE","operator":null,"country":"US","launch_date":"2022-05-06","launch_site_code":"AFETR","launch_vehicle":null,"mission":null,"orbit_class":"UNKNOWN","rcs_meters":null,"size_class":null,"mass_kg":null,"dimensions":null,"purposes":["comms"],"wikipedia_slug":null,"has_3d_model":false,"image_url":null,"decayed_at":null,"tle_current":{"epoch":"2026-05-25T04:39:53.434080Z","epoch_age_seconds":68572,"freshness":"FRESH","line1":"1 52489U 22049AQ  26145.19436845  .00000587  00000+0  54969-4 0  9999","line2":"2 52489  53.2130  75.6769 0001071  72.6154 287.4955 15.08843859223804","mean_motion":15.08843859,"eccentricity":0.0001071,"inclination_deg":53.213,"raan_deg":75.6769,"arg_perigee_deg":72.6154,"mean_anomaly_deg":287.4955,"bstar":5.4969e-5,"rev_number":22380,"period_min":95.437310587881,"perigee_km":538.99068984369,"apogee_km":540.47249729643,"semimajor_km":6917.8685935701,"source":"CELESTRAK","updated_at":"2026-05-25T13:38:17.157539Z"}}}